Flight Track Log - Related Links

Times and Time Zones

All times are in EDT time to prevent confusion due to time zone crossing. See the SNC8107 flight status page for this flight to view local times or setup timezone preferences in your user account.

Time Position Orientation Groundspeed Altitude Reporting Facility
EDT Latitude Longitude Course Direction KTS MPH feet Rate Location/Type
09:06AM 18.4500 -65.9667 90° East 110 127 900  Level San Juan Center
09:07AM 18.4500 -65.9333 90° East 130 150 1,500 645 Climbing San Juan Center
09:08AM 18.4500 -65.9000 90° East 130 150 2,200 650 Climbing San Juan Center
09:09AM 18.4500 -65.8500 90° East 130 150 2,800 450 Climbing San Juan Center
09:10AM 18.4500 -65.8167 90° East 140 161 3,100 446 Climbing San Juan Center
09:11AM 18.4500 -65.7833 90° East 140 161 3,700 450 Climbing San Juan Center
09:12AM 18.4500 -65.7333 90° East 140 161 4,000 446 Climbing San Juan Center
09:13AM 18.4667 -65.7000 62° Northeast 140 161 4,600 496 Climbing San Juan Center
09:14AM 18.4667 -65.6500 90° East 140 161 5,000 200 Climbing San Juan Center
09:15AM 18.4667 -65.6000 90° East 160 184 5,000  Level San Juan Center
09:16AM 18.4667 -65.5667 90° East 170 196 5,000  Level San Juan Center
09:17AM 18.4667 -65.5000 90° East 190 219 5,000  Level San Juan Center
09:18AM 18.4667 -65.4500 90° East 180 207 5,000  Level San Juan Center
09:19AM 18.4667 -65.4000 90° East 170 196 5,000  Level San Juan Center
09:20AM 18.4333 -65.3667 137° Southeast 170 196 5,000 -99 Level San Juan Center
09:21AM 18.4000 -65.3333 137° Southeast 170 196 4,800 -450 Descending San Juan Center
09:22AM 18.3667 -65.2833 125° Southeast 190 219 4,100 -650 Descending San Juan Center
09:23AM 18.3500 -65.2333 109° East 180 207 3,500 -595 Descending San Juan Center
09:24AM 18.3333 -65.2000 118° Southeast 180 207 2,900 -650 Descending San Juan Center
09:25AM 18.3167 -65.1500 109° East 170 196 2,200 -397 Descending San Juan Center
09:26AM 18.3333 -65.1000 71° East 130 150 2,100 -248 Descending San Juan Center
09:27AM 18.3333 -65.0667 90° East 110 127 1,700 -450 Descending San Juan Center
09:28AM 18.3167 -65.0500 136° Southeast 100 115 1,200 -496 Descending San Juan Center
09:29AM 18.3333 -65.0167 62° Northeast 110 127 700 -492 Descending San Juan Center

Login

Don't have an account? Register now (free) for customized features, flight alerts, and more!